Tracking 23099 objects as of 14-May-2021
HD Live streaming from Space Station
objects crossing your sky now

SL-8 R/B

Track SL-8 R/B now!
10-day predictions


NORAD ID: 10918
Int'l Code: 1978-053B
Perigee: 958.9 km
Apogee: 1,002.3 km
Inclination: 82.9 °
Period: 104.6 minutes
Semi major axis: 7351 km
RCS: 5.0251 m2 (large)
Launch date: May 23, 1978
Source: Commonwealth of Independent States (former USSR) (CIS)
Launch site: PLESETSK MISSILE AND SPACE COMPLEX (PKMTR)

Note: This is a ROCKET BODY
aabbcc
Your satellite tracking list
Your tracking list is empty




NASA's NSSDC Master Catalog

Two Line Element Set (TLE):
1 10918U 78053B   21133.52860612 -.00000039  00000-0 -54630-4 0  9998
2 10918  82.9142 342.9742 0029507 337.9912  82.5272 13.77311925158925
Source of the keplerian elements: AFSPC